Location: Delettes
(50.6178°N, 2.2123°E)
Time: 03:39:29
(UTC+00:00)

STARLINK-24 - Pass Details

Date: 27 February 2020
Orbit: 527 x 528 km, 53.0° (Epoch: 09 April)

Event Time Altitude Azimuth Distance (km) Brightness Sun altitude
Rises 18:34:59 0° 273° (W) 2,665 9.4 -11.4°
Reaches altitude 10° 18:37:13 10° 277° (W) 1,776 7.8 -11.7°
Maximum altitude 18:41:13 60° 358° (N) 609 3.8 -12.3°
Enters shadow 18:43:56 19° 75° (ENE) 1,291 4.9 -12.8°
